#timestamp,LO_Frequency,Hit,StdDev 
1691355615.1,286047002.4,N
1691355635.8,286047002.3,N
1691355655.7,286047002.7,N
1691355675.5,286047002.3,N
1691355695.4,286047002.5,N
1691355715.2,286047002.3,N
1691355735.0,286047002.7,N
1691355735.9,286047002.7,N
1691355755.8,286046999.7,N
1691355775.6,286047002.7,N
1691355795.4,286047000.9,N
1691355815.3,286047002.8,N
1691355835.1,286047000.3,N
1691355855.9,286047000.7,N
1691355875.7,286047000.6,N
1691355895.5,286047000.7,N
1691355915.4,286047000.4,N
1691355935.2,286046998.5,N
1691355955.1,286046998.8,N
1691355956.0,286046998.8,N
1691355975.8,286046998.4,N
1691355995.6,286046998.7,N
1691356015.5,286046999.4,N
1691356035.3,286046999.2,N
1691356055.1,286046999.5,N
1691356075.9,286047001.2,N
1691356095.7,286046998.8,N
1691356115.6,286046998.5,N
1691356135.4,286046998.7,N
1691356155.2,286046998.9,N
1691356175.1,286046998.1,N
1691356176.0,286046998.1,N
1691356195.8,286047002.6,N
1691356215.7,286047002.3,N
1691356235.5,286047000.6,N
1691356255.3,286046998.5,N
1691356275.2,286046998.4,N
1691356295.0,286046998.7,N
1691356295.9,286046998.7,N
1691356315.8,286046998.9,N
1691356335.6,286046998.7,N
1691356355.4,286046999.1,N
1691356375.3,286046999.1,N
1691356395.1,286046998.6,N
1691356396.0,286046998.6,N
1691356415.8,286047001.1,N
1691356435.7,286047001.1,N
1691356455.5,286046998.2,N
1691356475.3,286047000.2,N
1691356495.2,286047000.6,N
1691356515.0,286046998.7,N
1691356515.9,286046998.7,N
1691356535.8,286046998.4,N
1691356555.6,286047001.1,N
1691356575.4,286047001.2,N
1691356595.3,286046998.6,N
1691356615.1,286046998.8,N
1691356635.9,286046998.3,N
1691356655.7,286047000.7,N
1691356675.5,286047001.1,N
1691356695.4,286046999.9,N
1691356715.2,286047002.4,N
1691356735.0,286047002.1,N
1691356736.0,286047002.1,N
1691356755.8,286047001.5,N
1691356775.6,286047002.1,N
1691356795.5,286047002.8,N
1691356815.3,286047002.5,N
1691356835.2,286047004.3,N
1691356855.0,286047004.3,N
1691356855.9,286047004.3,N
1691356875.7,286047001.8,N
1691356895.6,286047002.5,N
1691356915.4,286047002.1,N
1691356935.3,286047002.3,N
1691356955.1,286047002.8,N
1691356975.8,286047002.0,N
1691356995.7,286046999.8,N
1691357015.5,286047002.8,N
1691357035.4,286047000.6,N
1691357055.2,286047000.3,N
1691357075.0,286047001.2,N
1691357075.9,286047001.2,N
1691357095.8,286047000.8,N
1691357115.6,286047000.0,N
1691357135.5,286047001.0,N
1691357155.3,286047000.2,N
1691357175.1,286046999.7,N
1691357195.9,286047000.4,N
1691357215.7,286047000.1,N
1691357235.5,286047000.2,N
1691357255.4,286046999.7,N
1691357275.2,286047002.3,N
1691357295.1,286047002.3,N
1691357296.0,286047002.3,N
1691357315.8,286047000.2,N
1691357335.6,286047000.4,N
1691357355.5,286046999.8,N
1691357375.3,286047002.7,N
1691357395.2,286047002.3,N
1691357415.9,286047002.6,N
1691357435.7,286047002.0,N
1691357455.6,286047001.9,N
1691357475.4,286047002.6,N
1691357495.2,286046999.7,N
1691357515.1,286046999.7,N
1691357516.0,286046999.7,N
1691357535.8,286047002.7,N
1691357555.7,286047002.0,N
1691357575.5,286047002.1,N
1691357595.3,286047000.2,N
1691357615.2,286046998.6,N
1691357635.0,286046998.1,N
1691357635.9,286046998.1,N
1691357655.8,286046996.5,N
1691357675.6,286046997.1,N
1691357695.4,286046999.6,N
1691357715.3,286046998.8,N
1691357735.1,286046998.9,N
1691357755.8,286046998.7,N
1691357775.7,286046999.1,N
1691357795.5,286046996.7,N
1691357815.4,286046997.1,N
1691357835.2,286046997.1,N
1691357855.0,286046999.0,N
1691357855.9,286046999.0,N
1691357875.8,286046999.1,N
1691357895.6,286046998.3,N
1691357915.5,286046998.9,N
1691357935.3,286047001.2,N
1691357955.1,286046998.2,N
1691357975.9,286047000.9,N
1691357995.7,286047000.3,N
1691358015.5,286047000.5,N
1691358035.4,286047000.9,N
1691358055.2,286047000.4,N
1691358075.1,286046999.9,N
1691358076.0,286046999.9,N
1691358095.8,286047000.2,N
1691358115.6,286047000.2,N
1691358135.5,286047000.3,N
1691358155.3,286047002.3,N
1691358175.1,286047002.3,N
1691358195.9,286047001.9,N
1691358215.7,286047001.7,N
1691358235.6,286047001.5,N
1691358255.4,286047001.7,N
1691358275.2,286047004.2,N
1691358295.1,286047001.8,N
1691358296.0,286047001.8,N
1691358315.8,286047002.2,N
1691358335.6,286047001.6,N
1691358355.5,286047003.4,N
1691358375.3,286047001.8,N
1691358395.2,286047002.1,N
1691358415.9,286047002.1,N
1691358435.7,286047001.7,N
1691358455.6,286047003.9,N
1691358475.4,286047004.0,Y
1691358495.2,286047002.8,P
1691358515.1,286047002.1,N
1691358516.0,286047002.1,P
1691358535.8,286047001.8,Y
1691358555.7,286047002.5,P
1691358575.5,286047002.8,P
1691358595.3,286047002.1,P
1691358615.2,286047000.2,N
1691358635.0,286047002.8,Y
1691358635.9,286047002.8,P
1691358655.8,286047001.0,N
1691358675.6,286046998.9,N
1691358695.4,286046998.9,N
1691358715.3,286046998.6,N
1691358735.1,286046999.2,N
1691358755.8,286046999.0,N
1691358775.7,286046999.6,N
1691358795.5,286046998.8,N
1691358815.4,286046998.8,N
1691358835.2,286046999.1,N
1691358855.0,286046998.4,N
1691358855.9,286046998.4,N
1691358875.8,286046998.6,N
1691358895.6,286046998.1,N
1691358915.4,286046998.5,N
1691358935.3,286047001.0,N
1691358955.1,286047000.0,N
1691358975.9,286047000.9,N
1691358995.7,286047000.2,N
1691359015.5,286047000.5,N
1691359035.4,286047000.3,N
1691359055.2,286046999.8,N
1691359075.0,286047001.2,N
1691359075.9,286047001.2,N
1691359095.8,286047000.9,N
1691359115.6,286047001.1,N
1691359135.4,286047001.0,N
1691359155.3,286046998.1,N
1691359175.1,286046998.2,N
1691359195.9,286046998.4,N
